Location: Bemmer
(51.5498°N, 5.6249°E)
Time: 11:57:10
(UTC+00:00)

USA 186 - Pass Details

Date: 03 March 2021
Orbit: 261 x 429 km, 96.9° (Epoch: 15 April)

Event Time Altitude Azimuth Distance (km) Brightness Sun altitude
Exits shadow 19:59:54 13° 280° (W) 1,001 4.6 -25.0°
Drops below altitude 10° 20:00:51 10° 302° (WNW) 1,168 5.0 -25.1°
Sets 20:03:24 0° 331° (NNW) 2,041 6.0 -25.5°
